ELEKTRO-L

导读

ELEKTRO-L No.1是独联体(CIS,即俄罗斯)发射的首颗新一代静止轨道气象卫星,于2011年1月20日发射入轨。卫星搭载多光谱扫描仪可实现地球全圆盘多波段成像,最高可见光分辨率达1公里,同时配备日地物理探测设备,还承担数据传输和国际搜救信号转发任务,为俄罗斯气象预报、海洋监测和空间天气研究提供关键支撑,是俄罗斯气象卫星体系更新的重要标志。

基本信息
目录编号:
37344
目录名称:
ELEKTRO-L
国际标识:
2011-001A
轨道中心:
EARTH
卫星名称:
ELEKTRO-L
卫星全名:
--
卫星状态:
在轨 (已飞行5654 天)
发射日期:
2011-01-20 UTC
国别 :
俄罗斯(独联体) (CIS)
星等 :
--
轨道信息
数据来源 国际轨道数据 AOE轨道数据
星历时间 2026-07-14T13:13:47+0800
3小时前
查看轨道信息
2026-07-13T23:00:00+0800
17小时前
查看轨道信息
半长轴 42196.099km 42196.099km
偏心率 0.0004001 0.0004005
轨道倾角 9.745° 9.744°
近地点辐角 36.186° 35.740°
升交点赤经 54.226° 54.233°
平近点角 157.535° 304.184°
近地点 35801.079km 35801.062km
远地点 35834.845km 35834.862km
周期 1437.700分钟 1437.700分钟
每日圈数 1.0016 1.0016
详细信息
使用方式:
暂无
2D轨道图
3D轨道图
轨道高度分析图
轨道倾角分析图
轨道综合分析图
查看轨道综合分析图